Volver al catálogo

STARLINK-2270

ActivoComunicacionesVLEO
NORAD 48000·PAYLOAD·🇺🇸 United States

Lanzado Mar 24, 2021 desde Cape Canaveral Space Force Station

Loading…

Próximos Pases (próximas 24 horas)

TLE

ActualizadoSource: CelesTrak SupGP

Época: Sep 14, 2026, 20:09 UTC

1 48000C 21024Z   26257.84006944  .00074100  00000+0  12792-2 0  2579
2 48000  53.1241  68.2769 0003294 301.3444 206.1266 15.50359569    17

Sigue STARLINK-2270 en tiempo real con AllMySat

Download on the App Store